Weather History for Coleman, TX

Change the Weather History Date:

Thursday, November 8, 2012

  Actual Average (KABI) Record (KABI)
Temperature  
Mean Temperature 68 °F 58 °F  
Max Temperature 84 °F 70 °F 92 °F (1980)
Min Temperature 52 °F 46 °F 24 °F (1991)
Degree Days  
Heating Degree Days 0 8  
Month to date heating degree days 57  
Since 1 July heating degree days 161  
Cooling Degree Days 3 1  
Month to date cooling degree days 10  
Year to date cooling degree days 2399  
Growing Degree Days 18 (Base 50)    
Moisture  
Dew Point 49 °F    
Average Humidity 53    
Maximum Humidity 79    
Minimum Humidity 32    
Precipitation  
Precipitation 0.00 in 0.05 in 1.70 in (1965)
Month to date precipitation 0.48  
Year to date precipitation 22.66  
Sea Level Pressure  
Sea Level Pressure 30.01 in    
Wind  
Wind Speed 8 mph (SSW)    
Max Wind Speed 20 mph    
Max Gust Speed 28 mph    
Visibility 10 miles    
Events      
T = Trace of Precipitation, MM = Missing Value Source: NWS Daily Summary

Daily Weather History Graph

Daily Weather History Graph

Search for Another Location

Airport:

Trip Planner

Search our weather history database for the weather conditions in past years. The results will help you decide how hot, cold, wet, or windy it might be!

Date:

Astronomy

Nov. 08, 2012 Rise Set
Actual Time 7:00 AM CST 5:42 PM CST
Civil Twilight 6:34 AM CST 6:07 PM CST
Nautical Twilight 6:05 AM CST 6:36 PM CST
Astronomical Twilight 5:36 AM CST 7:05 PM CST
Moon 1:17 AM CST (11/8) 2:05 PM CST (11/8)
Length of Visible Light 11h 32m
Length of Day
10h 41m
Waning Crescent, 32% of the Moon is Illuminated
Nov 8
Waning Crescent
Nov 13
New
Nov 20
First Quarter
Nov 28
Full
Dec 6
Last Quarter

Hourly Weather History & Observations

Time (CST) Temp. Heat Index Dew Point Humidity Pressure Visibility Wind Dir Wind Speed Gust Speed Precip Events Conditions
12:15 AM 57.9 °F - 43.2 °F 58% 30.06 in 10.0 mi SSW 3.5 mph - N/A   Clear
12:35 AM 57.2 °F - 43.2 °F 59% 30.06 in 10.0 mi SW 4.6 mph - N/A   Clear
1:15 AM 55.4 °F - 43.2 °F 63% 30.05 in 10.0 mi SSW 3.5 mph - N/A   Clear
1:35 AM 55.6 °F - 43.7 °F 64% 30.05 in 10.0 mi SSW 3.5 mph - N/A   Clear
1:55 AM 55.6 °F - 43.7 °F 64% 30.05 in 10.0 mi SSW 3.5 mph - N/A   Clear
2:15 AM 55.4 °F - 43.9 °F 65% 30.05 in 10.0 mi South 4.6 mph - N/A   Clear
2:35 AM 55.4 °F - 44.1 °F 66% 30.05 in 10.0 mi South 4.6 mph - N/A   Clear
2:55 AM 55.2 °F - 44.4 °F 67% 30.05 in 10.0 mi SSW 3.5 mph - N/A   Clear
3:15 AM 54.7 °F - 44.2 °F 68% 30.04 in 10.0 mi SSW 4.6 mph - N/A   Clear
3:35 AM 54.0 °F - 44.1 °F 69% 30.03 in 10.0 mi SSW 4.6 mph - N/A   Clear
3:55 AM 53.6 °F - 44.2 °F 71% 30.04 in 10.0 mi SSW 4.6 mph - N/A   Clear
4:15 AM 53.8 °F - 44.6 °F 71% 30.03 in 10.0 mi SSW 4.6 mph - N/A   Clear
4:35 AM 53.8 °F - 44.8 °F 72% 30.03 in 10.0 mi SSW 3.5 mph - N/A   Clear
4:55 AM 54.0 °F - 45.1 °F 72% 30.04 in 10.0 mi Calm Calm - N/A   Clear
5:15 AM 54.1 °F - 45.5 °F 73% 30.04 in 10.0 mi SSW 3.5 mph - N/A   Clear
5:35 AM 53.8 °F - 45.5 °F 74% 30.04 in 10.0 mi SSW 3.5 mph - N/A   Clear
5:55 AM 53.2 °F - 45.5 °F 75% 30.04 in 10.0 mi Calm Calm - N/A   Clear
6:15 AM 52.5 °F - 45.1 °F 76% 30.05 in 10.0 mi SSW 3.5 mph - N/A   Clear
6:55 AM 52.2 °F - 45.3 °F 78% 30.06 in 10.0 mi Calm Calm - N/A   Clear
7:15 AM 52.0 °F - 45.5 °F 79% 30.06 in 10.0 mi SSW 3.5 mph - N/A   Clear
7:35 AM 52.7 °F - 46.0 °F 78% 30.07 in 10.0 mi Calm Calm - N/A   Clear
7:55 AM 55.2 °F - 47.5 °F 75% 30.07 in 10.0 mi Calm Calm - N/A   Clear
8:15 AM 59.4 °F - 49.3 °F 69% 30.08 in 10.0 mi SSW 4.6 mph - N/A   Clear
8:35 AM 62.4 °F - 50.0 °F 64% 30.08 in 10.0 mi South 8.1 mph - N/A   Clear
8:55 AM 64.6 °F - 50.4 °F 60% 30.08 in 10.0 mi South 9.2 mph - N/A   Clear
9:15 AM 66.4 °F - 49.8 °F 55% 30.08 in 10.0 mi SSW 12.7 mph 18.4 mph N/A   Clear
9:35 AM 67.8 °F - 49.5 °F 52% 30.08 in 10.0 mi SSW 13.8 mph 19.6 mph N/A   Clear
9:55 AM 69.3 °F - 49.8 °F 50% 30.07 in 10.0 mi SSW 13.8 mph 19.6 mph N/A   Clear
10:35 AM 73.2 °F - 51.1 °F 46% 30.06 in 10.0 mi South 17.3 mph 23.0 mph N/A   Clear
10:55 AM 75.0 °F - 51.6 °F 44% 30.06 in 10.0 mi SSW 17.3 mph 25.3 mph N/A   Clear
11:15 AM 76.8 °F - 52.3 °F 42% 30.05 in 10.0 mi SSW 16.1 mph 24.2 mph N/A   Clear
11:35 AM 77.7 °F - 52.9 °F 42% 30.04 in 10.0 mi South 16.1 mph 20.7 mph N/A   Clear
11:55 AM 78.4 °F - 53.2 °F 42% 30.03 in 10.0 mi SSW 19.6 mph 23.0 mph N/A   Clear
12:15 PM 80.8 °F 80.4 °F 53.8 °F 39% 30.02 in 10.0 mi SSW 18.4 mph 25.3 mph N/A   Clear
12:35 PM 81.9 °F - 52.9 °F 37% 30.01 in 10.0 mi SSW 18.4 mph 27.6 mph N/A   Clear
12:55 PM 81.5 °F 80.7 °F 53.1 °F 37% 30.00 in 10.0 mi SSW 15.0 mph 26.5 mph N/A   Clear
1:15 PM 81.9 °F 81.1 °F 53.6 °F 38% 29.99 in 10.0 mi South 18.4 mph 23.0 mph N/A   Clear
1:35 PM 82.0 °F - 52.5 °F 36% 29.98 in 10.0 mi SSW 15.0 mph 21.9 mph N/A   Clear
1:55 PM 82.6 °F - 52.9 °F 36% 29.97 in 10.0 mi SSW 16.1 mph 23.0 mph N/A   Clear
2:15 PM 83.5 °F - 52.5 °F 34% 29.97 in 10.0 mi SSW 17.3 mph 24.2 mph N/A   Clear
2:35 PM 84.4 °F - 52.2 °F 33% 29.96 in 10.0 mi SSW 12.7 mph 21.9 mph N/A   Clear
2:55 PM 84.9 °F - 52.0 °F 32% 29.95 in 10.0 mi South 19.6 mph 24.2 mph N/A   Clear
3:15 PM 84.2 °F - 51.8 °F 33% 29.95 in 10.0 mi SSW 16.1 mph 20.7 mph N/A   Clear
3:35 PM 84.4 °F - 51.1 °F 32% 29.95 in 10.0 mi South 16.1 mph 25.3 mph N/A   Clear
3:55 PM 83.7 °F - 50.9 °F 32% 29.95 in 10.0 mi South 15.0 mph 23.0 mph N/A   Clear
4:15 PM 83.5 °F - 50.9 °F 32% 29.95 in 10.0 mi South 17.3 mph 21.9 mph N/A   Clear
4:35 PM 83.3 °F - 50.9 °F 32% 29.95 in 10.0 mi South 15.0 mph 18.4 mph N/A   Clear
4:55 PM 82.2 °F - 49.8 °F 32% 29.95 in 10.0 mi South 15.0 mph 21.9 mph N/A   Clear
5:15 PM 81.3 °F - 48.9 °F 32% 29.95 in 10.0 mi South 13.8 mph 19.6 mph N/A   Clear
5:35 PM 79.5 °F - 48.7 °F 34% 29.95 in 10.0 mi South 11.5 mph - N/A   Clear
5:55 PM 77.9 °F - 50.0 °F 38% 29.96 in 10.0 mi South 10.4 mph - N/A   Clear
6:15 PM 76.5 °F - 50.7 °F 40% 29.96 in 10.0 mi South 13.8 mph - N/A   Clear
6:35 PM 75.9 °F - 50.2 °F 40% 29.96 in 10.0 mi South 10.4 mph - N/A   Clear
6:55 PM 74.7 °F - 50.2 °F 42% 29.97 in 10.0 mi South 9.2 mph - N/A   Clear
7:15 PM 73.4 °F - 50.7 °F 45% 29.98 in 10.0 mi South 10.4 mph - N/A   Clear
7:35 PM 72.9 °F - 51.6 °F 47% 29.98 in 10.0 mi South 11.5 mph - N/A   Clear
7:55 PM 72.5 °F - 52.0 °F 48% 29.98 in 10.0 mi South 13.8 mph 18.4 mph N/A   Clear
8:15 PM 72.1 °F - 52.0 °F 49% 29.99 in 10.0 mi South 9.2 mph - N/A   Clear
8:35 PM 71.2 °F - 51.8 °F 50% 29.98 in 10.0 mi South 11.5 mph - N/A   Clear
8:55 PM 70.5 °F - 51.6 °F 51% 29.99 in 10.0 mi South 8.1 mph - N/A   Clear
9:15 PM 69.3 °F - 51.4 °F 53% 30.00 in 10.0 mi South 9.2 mph - N/A   Clear
9:35 PM 68.2 °F - 51.3 °F 55% 29.99 in 10.0 mi South 8.1 mph - N/A   Clear
9:55 PM 66.7 °F - 51.1 °F 57% 29.99 in 10.0 mi South 8.1 mph - N/A   Clear
10:15 PM 66.0 °F - 50.9 °F 58% 29.99 in 10.0 mi South 6.9 mph - N/A   Clear
10:35 PM 65.7 °F - 50.4 °F 58% 29.99 in 10.0 mi South 8.1 mph - N/A   Clear
10:55 PM 66.0 °F - 49.6 °F 55% 29.99 in 10.0 mi South 8.1 mph - N/A   Clear
11:15 PM 65.8 °F - 49.3 °F 55% 29.99 in 10.0 mi South 11.5 mph - N/A   Clear
11:35 PM 65.7 °F - 49.1 °F 55% 29.99 in 10.0 mi South 9.2 mph - N/A   Clear
11:55 PM 64.9 °F - 49.1 °F 56% 30.00 in 10.0 mi South 8.1 mph - N/A   Clear